"Time","Temp","Dewpoint","Humidity","Pressure","Direction","Speed","Gust","Precip","PrecipRate"
"00:04:58","68.1","66.5","94.7","29.87","199","0","0","0.00","0.00"
"00:09:57","68.1","66.6","95","29.87","199","0","0","0.00","0.00"
"00:14:58","68.1","66.6","95","29.87","199","0","0","0.00","0.00"
"00:19:57","68","66.5","94.8","29.87","199","0","0","0.00","0.00"
"00:24:59","67.9","66.2","94.3","29.87","199","0","0","0.00","0.00"
"00:29:59","67.7","66.2","95","29.87","199","0","0","0.00","0.00"
"00:34:57","67.6","66.1","95","29.87","199","0","0","0.00","0.00"
"00:39:57","67.6","66.1","95","29.87","199","0","0","0.00","0.00"
"00:44:59","67.7","66.2","95","29.87","199","0","0","0.00","0.00"
"00:49:57","67.6","66.2","95.2","29.87","199","0","0","0.00","0.00"
"00:54:56","67.6","66.4","96","29.87","199","0","0","0.00","0.00"
"00:59:58","67.7","66.5","96","29.87","199","0","0","0.00","0.00"
"01:04:57","67.7","66.5","96","29.87","199","0","0","0.00","0.00"
"01:09:56","67.7","66.5","96","29.87","199","0","0","0.00","0.00"
"01:14:59","67.6","66.4","96","29.87","199","0","0","0.00","0.00"
"01:19:58","67.6","66.4","96","29.86","199","0","0","0.00","0.00"
"01:24:56","67.6","66.4","96","29.86","199","0","0","0.00","0.00"
"01:29:58","67.5","66.2","95.8","29.86","199","0","0","0.00","0.00"
"01:34:56","67.4","66","95.3","29.86","199","0","0","0.00","0.00"
"01:39:56","67.2","65.9","95.6","29.86","199","0","0","0.00","0.00"
"01:44:59","67.1","65.9","96","29.86","199","0","0","0.00","0.00"
"01:49:58","67.1","65.9","96","29.86","199","0","0","0.00","0.00"
"01:54:56","67","65.8","96","29.86","199","0","0","0.00","0.00"
"01:59:58","66.9","65.7","96","29.86","199","0","0","0.00","0.00"
"02:04:58","66.8","65.6","96","29.86","199","0","0","0.00","0.00"
"02:09:56","66.7","65.5","96","29.86","199","0","0","0.00","0.00"
"02:14:59","66.7","65.5","96","29.86","199","0","0","0.00","0.00"
"02:19:58","66.5","65.3","96","29.85","199","0","0","0.00","0.00"
"02:24:56","66.4","65.2","96","29.85","199","0","0","0.00","0.00"
"02:29:59","66.2","65","96","29.85","199","0","0","0.00","0.00"
"02:34:58","66.2","65","96","29.85","199","0","0","0.00","0.00"
"02:39:58","66.1","64.9","96","29.85","199","0","0","0.00","0.00"
"02:44:56","65.9","64.7","96","29.85","199","0","0","0.00","0.00"
"02:49:59","65.8","64.6","96","29.84","199","0","0","0.00","0.00"
"02:54:57","65.7","64.6","96","29.84","199","0","0","0.00","0.00"
"02:59:56","65.7","64.6","96.5","29.84","199","0","0","0.00","0.00"
"03:04:56","65.6","64.4","96","29.84","199","0","0","0.00","0.00"
"03:09:59","65.5","64.3","96","29.84","199","0","0","0.00","0.00"
"03:14:57","65.5","64.5","96.6","29.85","199","0","0","0.00","0.00"
"03:19:57","65.5","64.6","97","29.85","199","0","0","0.00","0.00"
"03:24:59","65.6","64.7","97","29.85","199","0","0","0.00","0.00"
"03:29:58","65.5","64.6","97","29.85","199","0","0","0.00","0.00"
"03:34:56","65.5","64.6","97","29.84","199","0","0","0.00","0.00"
"03:39:59","65.4","64.5","97","29.84","199","0","0","0.00","0.00"
"03:44:57","65.6","64.7","97","29.84","199","0","0","0.00","0.00"
"03:49:56","65.6","64.7","97","29.84","199","0","0","0.00","0.00"
"03:54:56","65.7","64.8","97","29.84","199","0","0","0.00","0.00"
"03:59:57","65.7","64.8","97","29.84","199","0","0","0.00","0.00"
"04:04:56","65.6","64.4","96.1","29.83","199","0","0","0.00","0.00"
"04:09:59","65.4","64.2","96","29.83","199","0","0","0.00","0.00"
"04:14:56","65.3","64.2","96.5","29.84","199","0","0","0.00","0.00"
"04:19:58","65.3","64.4","97","29.84","199","0","0","0.00","0.00"
"04:24:57","65.2","64.3","97","29.84","199","0","0","0.00","0.00"
"04:29:57","65.2","64.3","97","29.84","199","0","0","0.00","0.00"
"04:34:59","65.1","64.1","96.8","29.84","199","0","0","0.00","0.00"
"04:39:58","65","63.9","96.4","29.84","199","0","0","0.00","0.00"
"04:44:56","64.9","63.9","96.5","29.84","199","0","0","0.00","0.00"
"04:49:58","64.8","63.8","96.5","29.84","199","0","0","0.00","0.00"
"04:54:56","64.8","63.9","97","29.84","199","0","0","0.00","0.00"
"04:59:58","64.8","63.9","97","29.84","199","0","0","0.00","0.00"
"05:04:57","64.7","63.8","97","29.84","199","0","0","0.00","0.00"
"05:09:56","64.6","63.7","97","29.84","199","0","0","0.00","0.00"
"05:14:58","64.5","63.6","97","29.84","199","0","0","0.00","0.00"
"05:19:56","64.5","63.6","97","29.84","199","0","0","0.00","0.00"
"05:24:58","64.6","63.7","97","29.84","199","0","0","0.00","0.00"
"05:29:56","64.6","63.7","97","29.85","199","0","1.2","0.00","0.00"
"05:34:58","64.6","63.7","97","29.85","199","0","0","0.00","0.00"
"05:39:57","64.6","63.7","97","29.85","199","0","0","0.00","0.00"
"05:44:59","64.7","63.8","97","29.85","199","0","0","0.00","0.00"
"05:49:58","64.7","63.8","97","29.85","199","0.3","2.4","0.00","0.00"
"05:54:59","64.9","64","97","29.85","199","0.7","2.4","0.00","0.00"
"05:59:58","65.1","64.2","97","29.85","200","0.2","1.2","0.00","0.00"
"06:04:57","65.2","64.3","97","29.85","200","0","1.2","0.00","0.00"
"06:09:56","65.3","64.4","97","29.85","200","0","1.2","0.00","0.00"
"06:14:59","65.3","64.4","97","29.86","200","0","0","0.00","0.00"
"06:19:57","65.3","64.2","96.5","29.86","200","0","0","0.00","0.00"
"06:24:58","65.3","64.1","96.1","29.86","200","0","0","0.00","0.00"
"06:29:56","65.3","64.1","96","29.86","200","0","0","0.00","0.00"
"06:34:57","65.4","64.2","96","29.86","248","0","0","0.00","0.00"
"06:39:56","65.5","64.3","96","29.86","208","0","1.2","0.00","0.00"
"06:44:55","65.5","64.3","96","29.86","208","0","0","0.00","0.00"
"06:49:56","65.6","64.4","96","29.86","198","0","0","0.00","0.00"
"06:54:56","65.7","64.5","96","29.86","196","0","0","0.00","0.00"
"06:59:59","65.7","64.5","96","29.86","199","0","1.2","0.00","0.00"
"07:04:58","65.7","64.5","96","29.86","199","0","0","0.00","0.00"
"07:09:57","65.8","64.6","96","29.86","203","0","0","0.00","0.00"
"07:14:59","66.2","65.2","96.6","29.87","111","0.2","1.2","0.00","0.00"
"07:19:57","66.7","65.8","97","29.87","111","0.2","1.2","0.00","0.00"
"07:24:58","67.1","66.1","96.6","29.87","111","0","1.2","0.00","0.00"
"07:29:59","67.8","66.4","95.4","29.87","105","0.4","2.4","0.00","0.00"
"07:34:57","68.8","67.2","94.7","29.87","101","0","0","0.00","0.00"
"07:39:56","69.6","67.6","93.3","29.87","101","0","0","0.00","0.00"
"07:44:57","70.5","67.9","91.6","29.87","101","0.1","2.4","0.00","0.00"
"07:49:59","71.4","68","89","29.87","9","1.1","4.8","0.00","0.00"
"07:54:56","72.3","68.2","87.1","29.87","7","2.3","4.8","0.00","0.00"
"07:59:59","72.9","68.6","86.3","29.87","337","1.3","7.2","0.00","0.00"
"08:04:58","73.5","69","85.9","29.87","333","0.5","2.4","0.00","0.00"
"08:09:56","73.9","69","84.6","29.87","330","0.9","4.8","0.00","0.00"
"08:14:59","74.4","69","83.3","29.87","318","0.7","3.6","0.00","0.00"
"08:19:57","74.8","69.2","82.8","29.87","340","2","8.4","0.00","0.00"
"08:24:58","75.2","69.3","82.1","29.87","310","0.9","4.6","0.00","0.00"
"08:29:56","75.6","69.6","81.7","29.88","326","1.2","6","0.00","0.00"
"08:34:57","75.9","69.3","80","29.88","334","2","6","0.00","0.00"
"08:39:56","76.2","69.6","80.2","29.88","337","1.7","6","0.00","0.00"
"08:44:57","76.4","69.8","79.9","29.88","339","1.2","5.8","0.00","0.00"
"08:49:59","76.7","69.6","78.7","29.88","334","2.4","8.4","0.00","0.00"
"08:54:56","76.9","69.3","77.6","29.88","316","1.8","6","0.00","0.00"
"08:59:58","77.1","70","78.7","29.88","327","1.9","12","0.00","0.00"
"09:04:56","77.3","69.7","77.6","29.88","331","2.3","8.1","0.00","0.00"
"09:09:59","77.4","69.6","77","29.88","336","2.3","8.4","0.00","0.00"
"09:14:57","77.6","69.7","76.8","29.88","357","2.3","6","0.00","0.00"
"09:19:59","77.8","69.8","76.5","29.88","319","2.2","5.8","0.00","0.00"
"09:24:56","78.1","69.9","76.2","29.88","345","2.2","10.8","0.00","0.00"
"09:29:58","78.4","70.2","76","29.88","320","2.9","10.4","0.00","0.00"
"09:34:59","78.6","69.7","74.3","29.88","267","3.8","10.8","0.00","0.00"
"09:39:58","78.7","69.9","74.5","29.88","242","2.9","7.2","0.00","0.00"
"09:44:59","79","70.3","74.6","29.88","217","3","14.4","0.00","0.00"
"09:49:57","79","69.4","72.5","29.88","319","2.8","8.4","0.00","0.00"
"09:54:56","78.9","69.6","73.1","29.88","334","1.9","7.2","0.00","0.00"
"09:59:59","79.2","69.5","72.4","29.88","321","2.7","8.4","0.00","0.00"
"10:04:58","79.4","70.1","73.3","29.87","322","2.8","8.4","0.00","0.00"
"10:09:59","79.7","69.4","70.9","29.87","296","2.4","7.2","0.00","0.00"
"10:14:59","79.8","69.7","71.3","29.87","350","2.5","6","0.00","0.00"
"10:19:57","79.8","69.7","71.4","29.87","347","2.2","7.2","0.00","0.00"
"10:24:58","79.5","68.9","70.1","29.87","287","2.6","4.8","0.00","0.00"
"10:29:56","79.4","69.3","71.4","29.87","281","2","6","0.00","0.00"
"10:34:57","79.6","70.1","72.7","29.86","281","2.1","3.6","0.00","0.00"
"10:39:59","80.4","70.2","71","29.86","279","3.5","8.4","0.00","0.00"
"10:44:56","80.8","70.4","70.7","29.86","322","2.4","7.2","0.00","0.00"
"10:49:57","81.2","70.4","69.7","29.86","248","2.5","7.2","0.00","0.00"
"10:54:58","80.7","69.5","68.7","29.86","331","3.4","10.8","0.00","0.00"
"10:59:59","80.7","69.6","69","29.86","317","4","8.4","0.00","0.00"
"11:04:56","81.2","69.8","68.5","29.86","348","2.3","8.1","0.00","0.00"
"11:09:57","81.6","70.2","68.7","29.86","344","2.6","7.2","0.00","0.00"
"11:14:58","81.8","70.3","68.2","29.86","336","2.3","7.2","0.00","0.00"
"11:19:56","82.1","70.7","68.5","29.86","348","2.4","8.4","0.00","0.00"
"11:24:57","82.5","70.3","66.7","29.86","348","3.4","8.4","0.00","0.00"
"11:29:58","82.6","70.2","66.2","29.86","356","4","10.8","0.00","0.00"
"11:34:58","82.9","70.8","66.9","29.85","317","3.3","10.4","0.00","0.00"
"11:39:56","83.3","70.1","64.7","29.85","282","3.9","8.4","0.00","0.00"
"11:44:58","83.3","70","64.4","29.86","292","2.6","5.8","0.00","0.00"
"11:49:59","83.2","70.4","65.4","29.86","264","3.2","8.4","0.00","0.00"
"11:54:56","82.7","69.4","64.3","29.86","346","3","6","0.00","0.00"
"11:59:57","83.2","70.7","65.9","29.86","262","3.2","6","0.00","0.00"
"12:04:58","83.4","69.8","63.7","29.86","347","3.4","10.8","0.00","0.00"
"12:09:59","83.1","70.1","65","29.86","332","3.8","12","0.00","0.00"
"12:14:56","82.8","69.9","65","29.86","304","2.1","4.8","0.00","0.00"
"12:19:57","82.9","69.8","64.8","29.86","292","2.7","6","0.00","0.00"
"12:24:58","83.5","70.2","64.4","29.86","294","3","10.8","0.00","0.00"
"12:29:56","83.9","70.5","64.3","29.86","298","3.5","10.8","0.00","0.00"
"12:34:56","84.3","70.5","63.3","29.85","311","3.5","9.6","0.00","0.00"
"12:39:58","84.4","70.4","63.2","29.85","320","2.1","7.2","0.00","0.00"
"12:44:59","84.2","70.8","64.2","29.86","333","1.7","6","0.00","0.00"
"12:49:57","84","70.4","63.9","29.86","226","2.8","7.2","0.00","0.00"
"12:54:57","83.8","70.9","65.4","29.86","276","1.9","6","0.00","0.00"
"12:59:57","83.9","70.9","65","29.86","279","1.9","5.8","0.00","0.00"
"13:04:56","83.9","70","63","29.85","331","2.5","7.2","0.00","0.00"
"13:09:56","84.2","71.4","65.5","29.85","257","3.5","8.4","0.00","0.00"
"13:14:59","84.5","70.5","63","29.85","222","3.2","8.1","0.00","0.00"
"13:19:56","85.1","70.7","62.2","29.85","231","3.8","12","0.00","0.00"
"13:24:57","84.8","70.1","61.5","29.85","283","4.6","8.4","0.00","0.00"
"13:29:59","84.4","70.9","64.2","29.85","201","3.8","7.2","0.00","0.00"
"13:34:56","84.2","70","62.4","29.85","198","3.5","7.2","0.00","0.00"
"13:39:58","84.3","70.1","62.6","29.85","273","2.1","4.8","0.00","0.00"
"13:44:59","84.1","69.9","62.5","29.85","218","2","4.8","0.00","0.00"
"13:49:57","84.2","70.4","63.4","29.84","176","1.1","3.6","0.00","0.00"
"13:54:59","84.6","69.9","61.4","29.84","177","1.1","3.6","0.00","0.00"
"13:59:56","84.9","71","63.2","29.84","344","2.1","6","0.00","0.00"
"14:04:57","85.3","69.7","59.9","29.83","300","2.9","7.2","0.00","0.00"
"14:09:58","85.3","69.6","59.6","29.83","314","2.8","7.2","0.00","0.00"
"14:14:59","85.5","70.4","60.8","29.83","332","2.9","7.2","0.00","0.00"
"14:19:57","86.1","70.8","60.4","29.83","219","3","6.9","0.00","0.00"
"14:24:57","86.4","70.9","60","29.83","190","2.5","6","0.00","0.00"
"14:29:59","86.3","70.9","60.3","29.83","189","3.8","7.2","0.00","0.00"
"14:34:56","86.5","71.9","61.8","29.82","190","3.5","8.4","0.00","0.00"
"14:39:58","86.5","70.3","58.6","29.82","184","3.3","8.4","0.00","0.00"
"14:44:59","86.2","70.8","60.1","29.82","350","3.9","8.4","0.00","0.00"
"14:49:57","86.8","71","59.6","29.82","236","3.8","10.8","0.00","0.00"
"14:54:57","86.5","70.7","59.3","29.82","194","3.2","10.4","0.00","0.00"
"14:59:59","86.4","70.6","59.4","29.82","296","2.9","8.4","0.00","0.00"
"15:04:56","85.9","70.4","60.1","29.81","275","2.3","8.1","0.00","0.00"
"15:09:56","85.4","69.9","60","29.81","227","1.8","5.8","0.00","0.00"
"15:14:58","85.2","70.1","60.8","29.81","312","2.7","7.2","0.00","0.00"
"15:19:56","85.3","70.1","60.5","29.81","263","3","7.2","0.00","0.00"
"15:24:57","85.4","70","60.1","29.81","224","3","6.9","0.00","0.00"
"15:29:59","85.3","69.6","59.6","29.81","286","2.5","8.4","0.00","0.00"
"15:34:56","84.9","70.3","61.7","29.81","292","3.2","8.1","0.00","0.00"
"15:39:58","84.5","69.8","61.4","29.81","305","3.8","8.4","0.00","0.00"
"15:44:59","84","69.7","62.2","29.81","271","2.2","6","0.00","0.00"
"15:49:58","84","70","63.1","29.81","341","1.8","5.8","0.00","0.00"
"15:54:59","84","70.9","64.8","29.81","336","1.9","6","0.00","0.00"
"15:59:57","84.3","72.2","67","29.81","357","1.2","3.6","0.00","0.00"
"16:04:59","85.1","71.6","64.2","29.81","349","2.7","7.2","0.00","0.00"
"16:09:59","85.1","69.8","60.5","29.81","328","2.1","3.6","0.00","0.00"
"16:14:57","84.6","68.5","58.6","29.81","289","1.8","6","0.00","0.00"
"16:19:58","85","70.9","62.7","29.80","316","2","5.8","0.00","0.00"
"16:24:59","85.3","69.2","58.7","29.80","277","2.4","4.8","0.00","0.00"
"16:29:57","84.9","69.4","59.9","29.80","304","2.1","3.6","0.00","0.00"
"16:34:58","84.6","70.6","63","29.80","252","1.6","3.6","0.00","0.00"
"16:39:56","85.2","71.4","63.5","29.80","207","2.1","6","0.00","0.00"
"16:44:57","86.1","71.2","61.3","29.80","247","3.1","6","0.00","0.00"
"16:49:59","86.2","70.8","60.2","29.79","326","1.5","5.8","0.00","0.00"
"16:54:56","86.6","71.2","60.3","29.79","301","1.6","4.8","0.00","0.00"
"16:59:57","87.2","71.9","60.7","29.79","186","2.1","4.8","0.00","0.00"
"17:04:58","87.7","72","59.8","29.78","167","2.3","6","0.00","0.00"
"17:09:58","87.9","71.3","58","29.78","164","2","6","0.00","0.00"
"17:14:56","87.8","71.1","57.7","29.78","153","2.4","6","0.00","0.00"
"17:19:58","87.9","71.2","57.8","29.77","187","2.5","6","0.00","0.00"
"17:24:59","88","70.6","56.5","29.77","197","4.5","9.6","0.00","0.00"
"17:29:56","87.9","70.7","56.8","29.77","184","4.2","10.8","0.00","0.00"
"17:34:58","87.6","70.5","57","29.77","170","1.6","3.6","0.00","0.00"
"17:39:56","87.3","70.3","57.3","29.77","218","2.3","10.8","0.00","0.00"
"17:44:57","86.6","70.3","58.4","29.77","174","2.5","10.4","0.00","0.00"
"17:49:59","86.2","70.4","59.4","29.77","152","2.8","7.2","0.00","0.00"
"17:54:56","86.3","70.4","59.3","29.77","203","3.3","8.4","0.00","0.00"
"17:59:57","86.4","70.2","58.6","29.77","228","2.8","6","0.00","0.00"
"18:04:58","86.3","70.6","59.6","29.77","212","2.4","6","0.00","0.00"
"18:09:59","86.3","70.8","59.9","29.77","191","2.4","6","0.00","0.00"
"18:14:56","86.2","69.7","57.9","29.77","195","4.6","9.6","0.00","0.00"
"18:19:58","86.2","69.9","58.4","29.77","181","2.3","4.8","0.00","0.00"
"18:24:59","86.3","70.2","58.8","29.77","186","2.9","4.8","0.00","0.00"
"18:29:56","86.3","70.1","58.7","29.77","219","3.8","8.4","0.00","0.00"
"18:34:57","86.1","69.9","58.6","29.77","186","3.9","8.1","0.00","0.00"
"18:39:59","85.9","70.1","59.3","29.77","211","3.2","6.9","0.00","0.00"
"18:44:56","85.7","70.1","59.8","29.77","237","2.4","6","0.00","0.00"
"18:49:58","85.4","70.4","60.8","29.76","210","2.5","4.8","0.00","0.00"
"18:54:59","85.3","70.4","61.2","29.76","187","2.3","4.8","0.00","0.00"
"18:59:56","85.3","70.7","61.8","29.76","185","2.4","7.2","0.00","0.00"
"19:04:58","85.2","70.9","62.5","29.76","186","2.9","7.2","0.00","0.00"
"19:09:58","85.1","70.7","62.1","29.76","193","3.2","6","0.00","0.00"
"19:14:56","85","71","63","29.76","191","2.9","4.8","0.00","0.00"
"19:19:58","84.8","70.8","63","29.76","199","3.3","7.2","0.00","0.00"
"19:24:59","84.7","71","63.6","29.76","207","1.7","3.6","0.00","0.00"
"19:29:57","84.6","70.8","63.3","29.76","206","2.4","4.8","0.00","0.00"
"19:34:58","84.5","71","64","29.75","205","1.5","4.8","0.00","0.00"
"19:39:56","84.3","71","64.3","29.75","203","1.9","4.8","0.00","0.00"
"19:44:57","84.1","71.1","65","29.76","184","2.3","4.8","0.00","0.00"
"19:49:56","83.9","70.9","65","29.76","169","1.9","4.6","0.00","0.00"
"19:54:57","83.7","70.5","64.6","29.76","176","2.3","4.8","0.00","0.00"
"19:59:59","83.4","70.2","64.5","29.76","182","1.2","2.4","0.00","0.00"
"20:04:56","83.2","70.1","64.9","29.76","182","0.7","2.4","0.00","0.00"
"20:09:56","83","70","65","29.76","181","0.7","2.4","0.00","0.00"
"20:14:59","82.8","69.8","65","29.76","178","0.9","3.6","0.00","0.00"
"20:19:57","82.6","70","65.9","29.76","178","0.9","2.4","0.00","0.00"
"20:24:58","82.4","69.9","66","29.76","178","0.4","2.4","0.00","0.00"
"20:29:56","82.2","70","66.6","29.76","178","0.3","2.3","0.00","0.00"
"20:34:58","81.8","70.1","67.7","29.76","178","0","1.2","0.00","0.00"
"20:39:57","81.5","69.9","68","29.76","178","0.3","2.4","0.00","0.00"
"20:44:59","81.2","69.8","68.5","29.77","178","0.3","2.4","0.00","0.00"
"20:49:58","80.8","70.2","70.5","29.77","178","0","1.2","0.00","0.00"
"20:54:56","80.3","70","71","29.77","178","0","0","0.00","0.00"
"20:59:58","79.7","69.7","71.6","29.77","178","0","0","0.00","0.00"
"21:04:59","79.1","69.6","72.6","29.77","178","0","0","0.00","0.00"
"21:09:58","78.6","69.8","74.5","29.77","178","0","0","0.00","0.00"
"21:14:56","78.2","70","76","29.77","178","0","0","0.00","0.00"
"21:19:57","77.8","69.8","76.7","29.76","178","0","0","0.00","0.00"
"21:24:57","77.2","69.4","77","29.76","178","0","0","0.00","0.00"
"21:29:58","76.7","69.2","77.8","29.77","178","0","0","0.00","0.00"
"21:34:58","76.3","69.4","79.2","29.77","178","0","0","0.00","0.00"
"21:39:56","75.9","69.3","80","29.77","178","0","0","0.00","0.00"
"21:44:57","75.7","69.1","80.2","29.77","178","0","0","0.00","0.00"
"21:49:57","75.4","69.2","80.9","29.77","178","0","0","0.00","0.00"
"21:54:58","75.2","69.3","81.9","29.77","178","0","0","0.00","0.00"
"21:59:58","74.9","69.4","82.8","29.77","178","0","0","0.00","0.00"
"22:04:58","74.7","69.2","83","29.77","178","0","0","0.00","0.00"
"22:09:57","74.4","68.9","83","29.77","178","0","0","0.00","0.00"
"22:14:57","74.1","68.7","83.4","29.78","178","0","0","0.00","0.00"
"22:19:57","73.9","68.8","84","29.78","178","0","0","0.00","0.00"
"22:24:58","73.8","68.7","84","29.78","178","0","0","0.00","0.00"
"22:29:58","73.7","68.6","84","29.78","178","0","0","0.00","0.00"
"22:34:59","73.5","68.7","85","29.77","178","0.4","3.6","0.00","0.00"
"22:39:57","73.4","68.6","85","29.77","178","0","0","0.00","0.00"
"22:44:58","73.3","68.8","85.8","29.77","178","0","0","0.00","0.00"
"22:49:58","73.1","68.7","86","29.77","178","0","0","0.00","0.00"
"22:54:59","73","68.7","86.4","29.77","178","0","0","0.00","0.00"
"22:59:59","72.8","68.7","87","29.77","178","0.2","1.2","0.00","0.00"
"23:04:55","72.9","68.8","87","29.77","178","0.1","1.2","0.00","0.00"
"23:09:58","73.2","69.1","87","29.77","178","0","1.2","0.00","0.00"
"23:14:59","73.5","69.1","86","29.77","178","0","0","0.00","0.00"
"23:19:57","73.8","69.3","86","29.76","178","0","0","0.00","0.00"
"23:24:57","74.3","69.5","85.3","29.76","178","0","0","0.00","0.00"
"23:29:58","74.7","69.9","85","29.77","178","0","0","0.00","0.00"
"23:34:59","75.2","70","84.1","29.77","180","0.7","3.6","0.00","0.00"
"23:39:57","75.5","70.1","83.5","29.77","180","0.9","3.6","0.00","0.00"
"23:44:58","75.6","70.1","83","29.77","180","0.1","1.2","0.00","0.00"
